West Columbia, WV

9:19 AM EST on February 13, 2016 (GMT -0500)
Point Pleasant

Weather History for K3I2 - September, 2012

Change the Weather History Date:

Thursday, September 20, 2012

  Actual Average (KHTS) Record (KHTS)
Temperature  
Mean Temperature 57 °F 66 °F  
Max Temperature 77 °F 77 °F 96 °F (1940)
Min Temperature 37 °F 55 °F 38 °F (1903)
Degree Days  
Heating Degree Days 8 2  
Month to date heating degree days 17  
Since 1 July heating degree days 19  
Cooling Degree Days 0 3  
Month to date cooling degree days 109  
Year to date cooling degree days 1086  
Growing Degree Days 7 (Base 50)    
Moisture  
Dew Point 45 °F    
Average Humidity 70    
Maximum Humidity 100    
Minimum Humidity 32    
Precipitation  
Precipitation 0.00 in 0.08 in 1.87 in (1948)
Month to date precipitation 1.91  
Year to date precipitation 32.16  
Snow  
Snow 0.00 in - - ()
Month to date snowfall  
Since 1 September snowfall  
Snow Depth -    
Sea Level Pressure  
Sea Level Pressure 30.06 in    
Wind  
Wind Speed 2 mph (SW)    
Max Wind Speed 12 mph    
Max Gust Speed 17 mph    
Visibility 9 miles    
Events Fog    
T = Trace of Precipitation, MM = Missing Value Source: NWS Daily Summary

Daily Weather History Graph

Daily Weather History Graph

Search for Another Location

Airport or City:

Trip Planner

Search our weather history database for the weather conditions in past years. The results will help you decide how hot, cold, wet, or windy it might be!

Date:

Astronomy

Sep. 20, 2012 Rise Set
Actual Time 7:14 AM EDT 7:27 PM EDT
Civil Twilight 6:48 AM EDT 7:54 PM EDT
Nautical Twilight 6:16 AM EDT 8:25 PM EDT
Astronomical Twilight 5:45 AM EDT 8:57 PM EDT
Moon 12:28 PM EDT (9/20) 10:31 PM EDT (9/20)
Length of Visible Light 13h 06m
Length of Day
12h 13m
Waxing Crescent, 26% of the Moon is Illuminated
Sep 20
Waxing Crescent
Sep 22
First Quarter
Sep 29
Full
Oct 8
Last Quarter
Oct 15
New

Hourly Weather History & Observations

Time (EDT) Temp. Dew Point Humidity Pressure Visibility Wind Dir Wind Speed Gust Speed Precip Events Conditions
12:15 AM 42.8 °F 41.0 °F 93% 30.14 in 10.0 mi Calm Calm - N/A   Clear
12:55 AM 41.0 °F 39.2 °F 93% 30.13 in 10.0 mi Calm Calm - N/A   Clear
1:15 AM 41.0 °F 39.2 °F 93% 30.12 in 10.0 mi Calm Calm - N/A   Clear
1:35 AM 41.0 °F 37.4 °F 87% 30.12 in 10.0 mi Calm Calm - N/A   Clear
1:55 AM 41.0 °F 39.2 °F 93% 30.13 in 10.0 mi Calm Calm - N/A   Clear
2:15 AM 41.0 °F 37.4 °F 87% 30.12 in 10.0 mi Calm Calm - N/A   Clear
2:35 AM 39.2 °F 37.4 °F 93% 30.12 in 10.0 mi Calm Calm - N/A   Clear
2:55 AM 39.2 °F 37.4 °F 93% 30.12 in 10.0 mi Calm Calm - N/A   Clear
3:15 AM 39.2 °F 37.4 °F 93% 30.11 in 10.0 mi Calm Calm - N/A   Clear
3:35 AM 39.2 °F 37.4 °F 93% 30.11 in 10.0 mi Calm Calm - N/A   Clear
3:55 AM 37.4 °F 37.4 °F 100% 30.11 in 10.0 mi Calm Calm - N/A   Clear
4:15 AM 39.2 °F 37.4 °F 93% 30.10 in 5.0 mi Calm Calm - N/A   Mostly Cloudy
4:35 AM 39.2 °F 37.4 °F 93% 30.11 in 0.2 mi Calm Calm - N/A Fog Fog
4:55 AM 41.0 °F 39.2 °F 93% 30.11 in 0.2 mi Calm Calm - N/A Fog Fog
5:15 AM 37.4 °F 37.4 °F 100% 30.11 in 4.0 mi Calm Calm - N/A   Overcast
5:35 AM 37.4 °F 37.4 °F 100% 30.12 in 2.0 mi Calm Calm - N/A   Overcast
5:55 AM 39.2 °F 37.4 °F 93% 30.12 in 0.5 mi Calm Calm - N/A Fog Fog
6:15 AM 37.4 °F 37.4 °F 100% 30.12 in 0.8 mi Calm Calm - N/A   Overcast
6:35 AM 37.4 °F 37.4 °F 100% 30.12 in 4.0 mi Calm Calm - N/A   Scattered Clouds
6:55 AM 37.4 °F 35.6 °F 93% 30.12 in 10.0 mi Calm Calm - N/A   Clear
7:15 AM 37.4 °F 35.6 °F 93% 30.13 in 10.0 mi Calm Calm - N/A   Clear
7:35 AM 37.4 °F 35.6 °F 93% 30.13 in 10.0 mi Calm Calm - N/A   Clear
7:55 AM 39.2 °F 37.4 °F 93% 30.12 in 10.0 mi Calm Calm - N/A   Clear
8:15 AM 41.0 °F 41.0 °F 100% 30.12 in 10.0 mi Calm Calm - N/A   Clear
8:35 AM 44.6 °F 42.8 °F 93% 30.12 in 10.0 mi Calm Calm - N/A   Clear
9:35 AM 51.8 °F 44.6 °F 76% 30.11 in 10.0 mi Calm Calm - N/A   Clear
9:55 AM 55.4 °F 44.6 °F 67% 30.10 in 10.0 mi Calm Calm - N/A   Clear
10:15 AM 59.0 °F 46.4 °F 63% 30.10 in 10.0 mi SSW 4.6 mph - N/A   Clear
10:35 AM 60.8 °F 46.4 °F 59% 30.11 in 10.0 mi SW 4.6 mph - N/A   Clear
10:55 AM 62.6 °F 46.4 °F 55% 30.10 in 10.0 mi SW 5.8 mph - N/A   Clear
11:15 AM 64.4 °F 46.4 °F 52% 30.09 in 10.0 mi SW 5.8 mph - N/A   Clear
11:35 AM 68.0 °F 48.2 °F 49% 30.09 in 10.0 mi SSW 5.8 mph - N/A   Clear
11:55 AM 68.0 °F 48.2 °F 49% 30.08 in 10.0 mi WSW 5.8 mph - N/A   Clear
12:15 PM 69.8 °F 46.4 °F 43% 30.07 in 10.0 mi SW 5.8 mph - N/A   Clear
12:35 PM 71.6 °F 48.2 °F 43% 30.06 in 10.0 mi SW 8.1 mph - N/A   Clear
12:55 PM 71.6 °F 48.2 °F 43% 30.06 in 10.0 mi SW 8.1 mph - N/A   Clear
1:15 PM 73.4 °F 46.4 °F 38% 30.05 in 10.0 mi SW 9.2 mph - N/A   Clear
1:35 PM 73.4 °F 46.4 °F 38% 30.04 in 10.0 mi South 5.8 mph - N/A   Clear
1:55 PM 75.2 °F 44.6 °F 34% 30.04 in 10.0 mi WSW 11.5 mph 17.3 mph N/A   Clear
2:15 PM 73.4 °F 44.6 °F 36% 30.03 in 10.0 mi South 5.8 mph - N/A   Clear
2:35 PM 77.0 °F 44.6 °F 32% 30.03 in 10.0 mi SW 10.4 mph 16.1 mph N/A   Clear
2:55 PM 77.0 °F 44.6 °F 32% 30.02 in 10.0 mi SW 8.1 mph - N/A   Clear
3:15 PM 77.0 °F 44.6 °F 32% 30.02 in 10.0 mi SW 8.1 mph - N/A   Clear
3:55 PM 77.0 °F 46.4 °F 34% 30.00 in 10.0 mi SW 6.9 mph - N/A   Clear
4:15 PM 77.0 °F 44.6 °F 32% 29.99 in 10.0 mi SW 6.9 mph - N/A   Clear
4:35 PM 77.0 °F 44.6 °F 32% 29.99 in 10.0 mi SW 9.2 mph - N/A   Clear
4:55 PM 77.0 °F 46.4 °F 34% 29.99 in 10.0 mi SW 8.1 mph - N/A   Clear
5:15 PM 77.0 °F 46.4 °F 34% 29.98 in 10.0 mi SW 8.1 mph - N/A   Clear
5:35 PM 77.0 °F 46.4 °F 34% 29.98 in 10.0 mi SW 9.2 mph 17.3 mph N/A   Clear
5:55 PM 73.4 °F 48.2 °F 41% 29.98 in 10.0 mi SW 10.4 mph 16.1 mph N/A   Clear
6:15 PM 73.4 °F 50.0 °F 44% 29.98 in 10.0 mi SSW 5.8 mph - N/A   Clear
6:35 PM 73.4 °F 50.0 °F 44% 29.98 in 10.0 mi SSW 3.5 mph - N/A   Clear
6:55 PM 71.6 °F 51.8 °F 50% 29.98 in 10.0 mi Calm Calm - N/A   Clear
7:15 PM 68.0 °F 53.6 °F 60% 29.98 in 10.0 mi SSW 3.5 mph - N/A   Clear
7:35 PM 64.4 °F 53.6 °F 68% 29.99 in 10.0 mi Calm Calm - N/A   Clear
7:55 PM 62.6 °F 53.6 °F 72% 29.99 in 10.0 mi Calm Calm - N/A   Clear
8:15 PM 60.8 °F 53.6 °F 77% 29.99 in 10.0 mi Calm Calm - N/A   Clear
8:35 PM 60.8 °F 53.6 °F 77% 29.99 in 10.0 mi Calm Calm - N/A   Clear
8:55 PM 59.0 °F 53.6 °F 82% 30.00 in 10.0 mi Calm Calm - N/A   Clear
9:15 PM 59.0 °F 53.6 °F 82% 30.00 in 10.0 mi Calm Calm - N/A   Scattered Clouds
9:35 PM 59.0 °F 53.6 °F 82% 30.00 in 10.0 mi Calm Calm - N/A   Scattered Clouds
9:55 PM 59.0 °F 53.6 °F 82% 30.00 in 10.0 mi Calm Calm - N/A   Mostly Cloudy
10:15 PM 59.0 °F 53.6 °F 82% 30.00 in 10.0 mi Calm Calm - N/A   Overcast
10:35 PM 59.0 °F 53.6 °F 82% 30.00 in 10.0 mi Calm Calm - N/A   Mostly Cloudy
10:55 PM 59.0 °F 53.6 °F 82% 30.00 in 10.0 mi Calm Calm - N/A   Scattered Clouds
11:15 PM 59.0 °F 53.6 °F 82% 30.00 in 10.0 mi Calm Calm - N/A   Scattered Clouds
11:35 PM 57.2 °F 53.6 °F 88% 30.00 in 10.0 mi Calm Calm - N/A   Clear
11:55 PM 57.2 °F 53.6 °F 88% 30.00 in 10.0 mi Calm Calm - N/A   Scattered Clouds